Flag for U.S.A. Weather past 2 weeks in Providence, Rhode Island, U.S.A.

Now
16 °F

Overcast.


Feels Like: -2 °F
Forecast: 10 / 19 °F
Wind: 22 mph from Northwest

Location: Green State Airport

Current Time: Jan 31, 2015 at 3:50:20 AM

Latest Report: Jan 31, 2015 at 2:51 AM


Visibility: 10 mi

Pressure: 29.78 "Hg

Humidity: 56%

Dew point: 3 °F

Location of ProvidenceLocation

Historic Weather in Providence — Graph

°F

Providence temperature yesterday

Maximum temperature yesterday: 34 °F (at 10:51 AM)
Minimum temperature yesterday: 19 °F (at 11:51 PM)
Average temperature yesterday: 31 °F

Past Weeks' High & Low Weather Summary

 TemperatureHumidityPressure
High52 °F (Jan 18, 6:51 PM)96% (Jan 24, 4:51 AM)30.39 "Hg (Jan 24, 4:51 AM)
Low5 °F (Jan 29, 6:51 AM)22% (Jan 17, 1:51 PM)29.13 "Hg (Jan 24, 4:51 PM)
Average28 °F64%29.92 "Hg
* Reported Jan 16 2:51 AM — Jan 31 2:51 AM, Providence, Weather by CustomWeather, © 2014

Note: Actual official high and low records may vary slightly from our data, if they occured in-between our weather recording intervals... More about our weather records

Advertising

Providence weather history for previous 24 hours

 ConditionsComfort  
Time TempWeatherWind HumidityBarometerVisibility
2:51 AM
Jan 31
16 °FOvercast.22 mph56%29.78 "Hg10 mi
1:51 AM17 °FOvercast.22 mph54%29.78 "Hg10 mi
12:51 AM18 °FOvercast.22 mph54%29.77 "Hg10 mi
11:51 PM
Jan 30
19 °FPassing clouds.21 mph54%29.77 "Hg10 mi
10:51 PM22 °FPassing clouds.20 mph55%29.78 "Hg10 mi
9:51 PM25 °FPassing clouds.17 mph55%29.77 "Hg10 mi
8:51 PM28 °FPassing clouds.17 mph58%29.76 "Hg10 mi
7:51 PM30 °FPassing clouds.20 mph59%29.76 "Hg10 mi
6:51 PM32 °FLight snow. Overcast.16 mph75%29.74 "Hg8 mi
5:51 PM32 °FLight snow. Overcast.10 mph79%29.75 "Hg7 mi
4:51 PM33 °FLight snow. More clouds than sun.12 mph75%29.73 "Hg8 mi
3:51 PM34 °FLight snow. Overcast.10 mph73%29.72 "Hg9 mi
2:51 PM34 °FOvercast.9 mph76%29.71 "Hg10 mi
1:51 PM34 °FMostly cloudy.6 mph79%29.72 "Hg10 mi
12:51 PM34 °FLight snow. Mostly cloudy.6 mph82%29.73 "Hg5 mi
11:51 AM33 °FLight snow. Fog.5 mph88%29.76 "Hg1 mi
10:51 AM34 °FLight snow. Fog.No wind92%29.78 "Hg1 mi
9:58 AM32 °FLight snow. Ice fog.3 mph96%29.80 "Hg1 mi
8:51 AM33 °FLight snow. Fog.No wind92%29.82 "Hg1 mi
7:51 AM32 °FIce fog.No wind92%29.83 "Hg4 mi
6:51 AM32 °FOvercast.5 mph92%29.84 "Hg7 mi
5:51 AM32 °FMostly cloudy.3 mph92%29.86 "Hg10 mi
4:59 AM31 °FMostly cloudy.No wind92%29.88 "Hg10 mi
4:01 AM32 °FLight snow. Ice fog.No wind92%29.90 "Hg2 mi
Weather by CustomWeather, © 2014

See weather overviewHow to use our weather pages